Regional Weather Roundup
Issued by NWS Upton, NY

Current Version | Previous Version | Text Only | Print | Product List | Glossary On
Versions: 1 2 3 4 5 6 7 8 9 10 11 12 13 14 15 16 17 18 19 20 21 22 23 24 25 26 27 28 29 30 31 32 33 34 35 36 37 38 39 40 41 42 43 44 45 46 47 48 49 50
000
ASUS41 KOKX 010505
RWROKX

REGIONAL WEATHER ROUNDUP
NATIONAL WEATHER SERVICE NEW YORK NY
1200 AM EST SUN MAR 01 2015

NOTE: "FAIR" INDICATES FEW OR NO CLOUDS BELOW 12,000 FEET WITH NO
SIGNIFICANT WEATHER AND/OR OBSTRUCTIONS TO VISIBILITY.

NYZ071-072-176-178-NJZ106-104-010600-
NEW YORK CITY METRO AREA


CITY           SKY/WX    TMP DP  RH WIND       PRES   REMARKS
CENTRAL PARK   CLEAR     27   0  31 MISG      30.74F
LAGUARDIA APRT PTCLDY    27   2  34 CALM      30.73F
KENNEDY INTL   CLEAR     24   7  48 W8        30.75F WCI  15
NEWARK/LIBERTY PTCLDY    22   3  44 CALM      30.73F
BRNX BOT. GARD   N/A    N/A N/A N/A NW2       30.74S
TETERBORO      CLEAR     20   4  50 CALM      30.73F
$$

NYZ177-179-078>081-010600-
LONG ISLAND NEW YORK

CITY           SKY/WX    TMP DP  RH WIND       PRES   REMARKS
FARMINGDALE    CLEAR     16   6  65 CALM      30.74F
ISLIP          PTCLDY    16   5  62 CALM      30.72F
SHIRLEY        CLEAR     13   2  61 CALM      30.75S
WESTHAMPTON    CLEAR      3  -6  66 CALM      30.75F
MONTAUK POINT    N/A     25  13  60 W5        30.74F WCI  19
$$

NYZ052-065-067-010600-
HUDSON VALLEY

CITY           SKY/WX    TMP DP  RH WIND       PRES   REMARKS
WHITE PLAINS   CLEAR     12   2  64 NW5       30.69F WCI   4
NEWBURGH       NOT AVBL
MONTGOMERY     CLEAR      2  -4  76 CALM      30.69F
POUGHKEEPSIE   CLEAR      5  -2  72 CALM      30.72F
ALBANY         PTCLDY     6   0  76 CALM      30.72F
$$

NJZ001-105-106-008-010-013-015-019>022-104-010600-
NEW JERSEY

CITY           SKY/WX    TMP DP  RH WIND       PRES   REMARKS
NEWARK/LIBERTY PTCLDY    22   3  44 CALM      30.73F
TETERBORO      CLEAR     20   4  50 CALM      30.73F
CALDWELL       CLEAR     14   2  58 CALM      30.73F
MORRISTOWN     CLEAR     10   1  67 CALM      30.72F
SOMERVILLE     CLEAR      9   2  73 NW3       30.71F
SUSSEX         CLEAR      5  -1  76 CALM      30.70F
ANDOVER          N/A      4  -1  80 CALM      30.69F
TRENTON        CLEAR     16   3  56 CALM      30.72F
MILLVILLE      CLEAR     14   7  73 CALM      30.74F
ATLANTIC CITY  CLEAR     16   8  71 CALM      30.75
WRIGHTSTOWN    CLEAR     14   6  69 E2        30.71F
TOMS RIVER     CLEAR     10   9  92 CALM      30.74F
BELMAR         CLEAR     19   7  58 SW3       30.72F
$$

PAZ047>061-062-071-010600-
EASTERN PENNSYLVANIA

CITY           SKY/WX    TMP DP  RH WIND       PRES   REMARKS
PHILADELPHIA   PTCLDY    24   3  40 W3        30.75F
ALLENTOWN      CLEAR     12   0  58 CALM      30.70F
SCRANTON       PTCLDY    11  -2  56 E7        30.64F WCI   0
$$

CTZ002-004>006-009-010-012-RIZ004-006-007-MAZ004-011-015-010600-
SOUTHERN NEW ENGLAND
 IN CT

CITY           SKY/WX    TMP DP  RH WIND       PRES   REMARKS
BRADLEY INTL   CLEAR     10  -1  61 W3        30.71F
HARTFORD       CLEAR     10   5  80 CALM      30.74F
DANBURY        CLEAR      4  -4  69 CALM      30.71F
WTRBRY/OXFORD  CLEAR     18  -6  35 NW3       30.67F
BRIDGEPORT     CLEAR     14   8  77 CALM      30.74S
MERIDEN        CLEAR      4  -2  76 CALM      30.73F
NEW HAVEN      CLEAR      7   1  76 CALM      30.73F
CHESTER        FAIR      21   1  42 CALM      30.71S
GROTON         CLEAR     13   8  81 N5        30.73S WCI   5
WILLIMANTIC    CLEAR      6   0  76 CALM      30.73F

 IN RI

CITY           SKY/WX    TMP DP  RH WIND       PRES   REMARKS
PROVIDENCE     CLEAR     17   2  51 W3        30.72F
BLOCK ISLAND   CLEAR     27  16  63 W9        30.70F WCI  17
WESTERLY       CLEAR     11   5  77 CALM      30.73F

 IN MA

CITY           SKY/WX    TMP DP  RH WIND       PRES   REMARKS
BOSTON         CLEAR     24   3  40 W8        30.70S WCI  15
WORCESTER      CLEAR     16  -3  43 W12       30.63S WCI   3
WESTFIELD      CLEAR      4  -4  69 CALM      30.70F
PROVINCETOWN   CLEAR     23  12  63 W9        30.70F WCI  13
NANTUCKET      CLEAR     22  13  68 W6        30.71F WCI  14
$$

ANZ330-335-338-340-345-350-353-355-010600-
COASTAL MARINE OBSERVATIONS


STATION/POSITION TIME  SKY/WX   TEMP    WIND        PRES    VSBY  WAVE
                                AIR SEA DIR/SP/G                  HT/PER
                 (UTC)          (F)     (DEG/KT/KT) (MB)    (MI)  (FT/S)
NY HARB ENTRANCE 0500            28 37  250/  6/  8 1040.8          2/ 9
4S FIRE IS       NOT AVBL
20S FIRE ISLAND  0400               37              1042.4          2/ 8
23SW MTP         0500                                 N/A           2/ 8
HUDSON CANYON    NOT AVBL
EXECUTION ROCKS  NOT AVBL
WESTERN LI SOUND NOT AVBL
CENTRAL LI SOUND NOT AVBL
EASTERN LI SOUND NOT AVBL
ROBBINS REEF     0500            25     260/  7/  8 1039.6
$$


>>>>>>>>>>>>>>>>>>>>>>>>>>>> KEY <<<<<<<<<<<<<<<<<<<<<<<<<<<
>                                                          <
>     SKY/WX - SKY CONDITION/PRESENT WEATHER               <
>     TMP    - TEMPERATURE IN FAHRENHEIT                   <
>     DP     - DEWPOINT IN FAHRENHEIT                      <
>     RH     - RELATIVE HUMIDITY IN PERCENT                <
>     WIND   - DIRECTION AND SPEED IN MPH                  <
>     PRES   - MEAN SEA LEVEL PRESSURE IN INCHES OF HG     <
>     WCI    - WIND CHILL INDEX                            <
>     VSB    - VISIBILITY IN MILES                         <
>     HX     - HEAT INDEX                                  <
>     TC     - TEMPERATURE IN CELSIUS                      <
>     VRB    - VARIABLE WIND DIRECTION                     <
>                                                          <
>>>>>>>>>>>>>>>>>>>>>>>>>>>> KEY <<<<<<<<<<<<<<<<<<<<<<<<<<<




USA.gov is the U.S. government's official web portal to all federal, state and local government web resources and services.